When you browse on this site, cookies collect data to enhance your experience and personalize the content and advertising you see.
Visit our Privacy Policy to learn more. By continuing to use the site, you agree to this use of cookies and data.
  • En España
  • Lista de países
  • Para 7 días
  • Temperatura del agua
  • Mapa Satelital
  • El tiempo en el mapa
  • Informadores
  • user-avatar
    Iniciar sesión

    Tiempo cada hora Bangi

    Hoy, 21 Abril, Domingo

    Tiempo Temperatura Precipitaciones Viento Presión Humedad
    00:00 +29°C° 0.1 mm 1 mps 726 mmHg 61%
    01:00 +26°C° 0 mm 0 mps 726 mmHg 67%
    02:00 +26°C° 0 mm 0 mps 726 mmHg 69%
    03:00 +28°C° 0 mm 1 mps 725 mmHg 71%
    04:00 +27°C° 0 mm 1 mps 725 mmHg 73%
    05:00 +28°C° 0 mm 1 mps 726 mmHg 72%
    06:00 +28°C° 0 mm 1 mps 726 mmHg 72%
    07:00 +28°C° 0 mm 2 mps 727 mmHg 71%
    08:00 +31°C° 0 mm 2 mps 727 mmHg 63%
    09:00 +34°C° 0 mm 2 mps 727 mmHg 55%
    10:00 +36°C° 0 mm 2 mps 727 mmHg 47%
    11:00 +39°C° 0 mm 2 mps 726 mmHg 41%
    12:00 +42°C° 0 mm 1 mps 726 mmHg 34%
    13:00 +42°C° 0 mm 0 mps 725 mmHg 27%
    14:00 +40°C° 0 mm 0 mps 725 mmHg 31%
    15:00 +41°C° 0 mm 1 mps 724 mmHg 34%
    16:00 +37°C° 0 mm 1 mps 724 mmHg 37%
    17:00 +35°C° 0.1 mm 1 mps 724 mmHg 45%
    18:00 +34°C° 0.1 mm 2 mps 724 mmHg 52%
    19:00 +31°C° 0.1 mm 2 mps 724 mmHg 60%
    20:00 +30°C° 0 mm 2 mps 724 mmHg 65%
    21:00 +29°C° 0 mm 1 mps 724 mmHg 71%
    22:00 +28°C° 0 mm 1 mps 725 mmHg 76%
    23:00 +27°C° 0 mm 1 mps 725 mmHg 78%

    Mañana, 22 Abril, Lunes

    Tiempo Temperatura Precipitaciones Viento Presión Humedad
    00:00 +27°C° 0 mm 1 mps 725 mmHg 80%
    01:00 +27°C° 0 mm 1 mps 725 mmHg 81%
    02:00 +27°C° 0 mm 1 mps 725 mmHg 83%
    03:00 +26°C° 0 mm 1 mps 725 mmHg 85%
    04:00 +26°C° 0 mm 1 mps 725 mmHg 87%
    05:00 +27°C° 0 mm 1 mps 725 mmHg 84%
    06:00 +27°C° 0 mm 2 mps 726 mmHg 81%
    07:00 +28°C° 0 mm 2 mps 727 mmHg 78%
    08:00 +30°C° 0 mm 2 mps 727 mmHg 69%
    09:00 +33°C° 0 mm 3 mps 727 mmHg 59%
    10:00 +36°C° 0 mm 3 mps 728 mmHg 50%
    11:00 +37°C° 0 mm 3 mps 727 mmHg 45%
    12:00 +39°C° 0 mm 2 mps 726 mmHg 39%
    13:00 +41°C° 0 mm 2 mps 725 mmHg 34%
    14:00 +41°C° 0 mm 1 mps 725 mmHg 33%
    15:00 +37°C° 0 mm 0 mps 724 mmHg 32%
    16:00 +37°C° 0 mm 0 mps 724 mmHg 32%
    17:00 +35°C° 0 mm 0 mps 724 mmHg 36%
    18:00 +33°C° 0 mm 0 mps 724 mmHg 40%
    19:00 +30°C° 0 mm 0 mps 724 mmHg 44%
    20:00 +32°C° 0 mm 1 mps 725 mmHg 47%
    21:00 +31°C° 0 mm 1 mps 725 mmHg 50%
    22:00 +31°C° 0 mm 1 mps 726 mmHg 53%
    23:00 +30°C° 0.1 mm 1 mps 726 mmHg 59%

    Pasado mañana, 23 Abril, Martes

    Tiempo Temperatura Precipitaciones Viento Presión Humedad
    00:00 +29°C° 0.1 mm 2 mps 725 mmHg 65%
    01:00 +29°C° 0.1 mm 2 mps 725 mmHg 70%
    02:00 +28°C° 0 mm 2 mps 725 mmHg 73%
    03:00 +28°C° 0 mm 2 mps 724 mmHg 76%
    04:00 +27°C° 0 mm 2 mps 724 mmHg 79%
    05:00 +28°C° 0 mm 2 mps 725 mmHg 78%
    06:00 +28°C° 0 mm 2 mps 726 mmHg 77%
    07:00 +28°C° 0 mm 2 mps 727 mmHg 77%
    08:00 +30°C° 0 mm 2 mps 727 mmHg 68%
    09:00 +34°C° 0 mm 3 mps 728 mmHg 59%
    10:00 +36°C° 0 mm 3 mps 728 mmHg 51%
    11:00 +37°C° 0 mm 3 mps 727 mmHg 47%
    12:00 +38°C° 0 mm 2 mps 727 mmHg 42%
    13:00 +39°C° 0 mm 2 mps 726 mmHg 38%
    14:00 +39°C° 0 mm 2 mps 725 mmHg 38%
    15:00 +39°C° 0 mm 1 mps 725 mmHg 38%
    16:00 +39°C° 0 mm 1 mps 724 mmHg 37%
    17:00 +36°C° 0 mm 1 mps 724 mmHg 41%
    18:00 +34°C° 0 mm 1 mps 725 mmHg 45%
    19:00 +32°C° 0 mm 1 mps 725 mmHg 50%
    20:00 +32°C° 0 mm 1 mps 725 mmHg 50%
    21:00 +32°C° 0 mm 1 mps 726 mmHg 51%
    22:00 +31°C° 0 mm 1 mps 726 mmHg 51%
    23:00 +30°C° 0 mm 1 mps 726 mmHg 55%

    24 Abril, Miércoles

    Tiempo Temperatura Precipitaciones Viento Presión Humedad
    00:00 +30°C° 0 mm 1 mps 725 mmHg 58%
    01:00 +29°C° 0 mm 1 mps 725 mmHg 61%
    02:00 +28°C° 0 mm 1 mps 725 mmHg 64%
    03:00 +28°C° 0 mm 1 mps 725 mmHg 67%
    04:00 +28°C° 0 mm 1 mps 724 mmHg 70%
    05:00 +28°C° 0 mm 1 mps 725 mmHg 67%
    06:00 +29°C° 0 mm 1 mps 726 mmHg 65%
    07:00 +30°C° 0 mm 1 mps 727 mmHg 63%
    08:00 +33°C° 0 mm 1 mps 727 mmHg 54%
    09:00 +36°C° 0 mm 1 mps 727 mmHg 45%
    10:00 +40°C° 0 mm 2 mps 728 mmHg 36%
    11:00 +41°C° 0 mm 1 mps 727 mmHg 33%
    12:00 +42°C° 0 mm 1 mps 726 mmHg 30%
    13:00 +41°C° 0 mm 0 mps 725 mmHg 27%
    14:00 +40°C° 0 mm 0 mps 725 mmHg 28%
    15:00 +39°C° 0 mm 0 mps 724 mmHg 28%
    16:00 +41°C° 0 mm 1 mps 724 mmHg 29%
    17:00 +39°C° 0 mm 1 mps 725 mmHg 34%
    18:00 +36°C° 0 mm 1 mps 725 mmHg 38%
    19:00 +33°C° 0 mm 1 mps 726 mmHg 43%
    20:00 +33°C° 0 mm 1 mps 726 mmHg 46%
    21:00 +32°C° 0 mm 1 mps 726 mmHg 48%
    22:00 +31°C° 0 mm 1 mps 727 mmHg 50%
    23:00 +31°C° 0 mm 1 mps 726 mmHg 52%

    25 Abril, Jueves

    Tiempo Temperatura Precipitaciones Viento Presión Humedad
    00:00 +30°C° 0 mm 1 mps 725 mmHg 54%
    01:00 +29°C° 0 mm 1 mps 725 mmHg 56%
    02:00 +29°C° 0 mm 1 mps 725 mmHg 58%
    03:00 +29°C° 0 mm 1 mps 725 mmHg 59%
    04:00 +28°C° 0 mm 1 mps 725 mmHg 60%
    05:00 +29°C° 0 mm 1 mps 725 mmHg 62%
    06:00 +29°C° 0 mm 1 mps 726 mmHg 63%
    07:00 +29°C° 0 mm 1 mps 727 mmHg 64%
    08:00 +32°C° 0 mm 2 mps 727 mmHg 57%
    09:00 +36°C° 0 mm 2 mps 727 mmHg 50%
    10:00 +38°C° 0 mm 3 mps 727 mmHg 43%
    11:00 +40°C° 0 mm 2 mps 727 mmHg 37%
    12:00 +42°C° 0 mm 2 mps 726 mmHg 31%
    13:00 +44°C° 0 mm 1 mps 725 mmHg 25%
    14:00 +44°C° 0 mm 1 mps 724 mmHg 24%
    15:00 +43°C° 0 mm 1 mps 724 mmHg 23%
    16:00 +43°C° 0 mm 1 mps 723 mmHg 23%
    17:00 +40°C° 0 mm 1 mps 724 mmHg 29%
    18:00 +38°C° 0 mm 2 mps 724 mmHg 35%
    19:00 +35°C° 0 mm 2 mps 725 mmHg 41%
    20:00 +34°C° 0.3 mm 2 mps 725 mmHg 49%
    21:00 +32°C° 0.3 mm 2 mps 726 mmHg 58%
    22:00 +30°C° 0.3 mm 2 mps 726 mmHg 66%
    23:00 +30°C° 0 mm 2 mps 726 mmHg 68%

    26 Abril, Viernes

    Tiempo Temperatura Precipitaciones Viento Presión Humedad
    00:00 +30°C° 0 mm 2 mps 726 mmHg 69%
    01:00 +29°C° 0 mm 2 mps 725 mmHg 71%
    02:00 +29°C° 0 mm 2 mps 725 mmHg 74%
    03:00 +28°C° 0 mm 1 mps 725 mmHg 78%
    04:00 +27°C° 0 mm 1 mps 725 mmHg 81%
    05:00 +28°C° 0 mm 1 mps 725 mmHg 78%
    06:00 +29°C° 0 mm 1 mps 726 mmHg 74%
    07:00 +30°C° 0 mm 1 mps 726 mmHg 70%
    08:00 +34°C° 0 mm 2 mps 726 mmHg 60%
    09:00 +36°C° 0 mm 2 mps 727 mmHg 49%
    10:00 +39°C° 0 mm 3 mps 727 mmHg 39%
    11:00 +40°C° 0 mm 3 mps 726 mmHg 36%
    12:00 +42°C° 0 mm 3 mps 725 mmHg 33%
    13:00 +43°C° 0 mm 2 mps 725 mmHg 29%
    14:00 +41°C° 0 mm 2 mps 724 mmHg 33%
    15:00 +40°C° 0 mm 1 mps 724 mmHg 36%
    16:00 +37°C° 0 mm 1 mps 723 mmHg 39%
    17:00 +36°C° 0 mm 1 mps 723 mmHg 43%
    18:00 +34°C° 0 mm 1 mps 724 mmHg 46%
    19:00 +33°C° 0 mm 1 mps 724 mmHg 50%
    20:00 +31°C° 1.1 mm 1 mps 724 mmHg 60%
    21:00 +30°C° 1.1 mm 1 mps 724 mmHg 70%
    22:00 +28°C° 1.1 mm 2 mps 725 mmHg 80%
    23:00 +28°C° 0.6 mm 2 mps 725 mmHg 82%
    Mostrar más